Date and Time,30m Wind Direction,30m Wind Speed,30m Wind Vert,30m Quality,40m Wind Direction,40m Wind Speed,40m Wind Vert,40m Quality,50m Wind Direction,50m Wind Speed,50m Wind Vert,50m Quality,60m Wind Direction,60m Wind Speed,60m Wind Vert,60m Quality,80m Wind Direction,80m Wind Speed,80m Wind Vert,80m Quality,100m Wind Direction,100m Wind Speed,100m Wind Vert,100m Quality,120m Wind Direction,120m Wind Speed,120m Wind Vert,120m Quality,140m Wind Direction,140m Wind Speed,140m Wind Vert,140m Quality,160m Wind Direction,160m Wind Speed,160m Wind Vert,160m Quality,180m Wind Direction,180m Wind Speed,180m Wind Vert,180m Quality,200m Wind Direction,200m Wind Speed,200m Wind Vert,200m Quality,30m Wind Turbulence,40m Wind Turbulence,50m Wind Turbulence,60m Wind Turbulence,80m Wind Turbulence,100m Wind Turbulence,120m Wind Turbulence,140m Wind Turbulence,160m Wind Turbulence,180m Wind Turbulence,200m Wind Turbulence
2/9/2020 12:00 AM,255.6,3.62,-0.01,98.0,247.4,3.97,-0.05,98.0,249.2,4.06,-0.07,97.0,249.5,4.55,-0.06,97.0,254.8,5.05,-0.07,96.0,290.1,5.65,0.13,67.0,344.4,20.69,1.67,6.0,34.2,19.1,2.07,5.0,35.6,18.72,2.27,0.0,15.9,17.33,2.16,1.0,331.0,7.66,3.28,1.0,0.11,0.08,0.08,0.05,0.1,0.19,0.14,0.15,0.04,0.04,0.6
2/9/2020 12:10 AM,251.9,3.89,-0.04,97.0,252.2,4.1,-0.06,97.0,249.3,4.45,-0.04,96.0,250.7,4.76,-0.07,96.0,258.7,4.98,-0.02,95.0,258.8,4.41,-0.17,7.0,297.5,19.33,-2.49,0.0,318.3,24.94,3.9,0.0,31.5,37.27,-0.58,0.0,180.0,0.0,0.0,0.0,171.8,33.12,-1.59,0.0,0.1,0.08,0.07,0.06,0.09,0.33,0.15,0.0,0.03,0.0,0.0
2/9/2020 12:20 AM,271.7,3.6,-0.02,98.0,256.8,3.76,-0.03,97.0,259.8,4.11,-0.04,95.0,254.9,4.68,-0.05,97.0,266.0,5.08,-0.04,94.0,263.0,5.68,-0.13,14.0,308.3,19.23,-2.83,0.0,221.2,38.85,-1.27,0.0,303.6,27.08,-3.03,0.0,321.3,25.07,-4.5,0.0,196.1,24.73,-4.23,0.0,0.11,0.1,0.07,0.06,0.07,0.85,0.04,0.06,0.14,0.08,0.09
2/9/2020 12:30 AM,267.1,2.48,-0.03,95.0,258.9,2.57,-0.04,98.0,257.4,3.0,-0.01,94.0,255.6,3.55,-0.02,96.0,254.9,4.12,-0.07,96.0,258.6,4.23,-0.09,89.0,259.1,4.48,-0.14,26.0,196.4,15.6,-1.93,0.0,51.7,34.41,-1.63,0.0,119.7,26.94,-0.01,0.0,48.5,18.51,-2.44,0.0,0.18,0.15,0.09,0.07,0.05,0.06,0.33,0.76,0.09,0.11,0.13
2/9/2020 12:40 AM,236.9,1.87,-0.06,95.0,241.9,2.97,-0.05,98.0,250.5,3.16,-0.05,96.0,245.5,3.57,-0.1,98.0,253.4,3.94,-0.07,97.0,266.1,4.29,-0.05,93.0,243.8,4.37,-0.1,35.0,87.0,12.71,2.35,0.0,13.8,30.53,2.19,0.0,176.8,27.98,-1.68,0.0,5.7,2.45,-0.53,0.0,0.2,0.09,0.08,0.07,0.06,0.11,0.6,0.2,0.03,0.06,0.31
2/9/2020 12:50 AM,234.2,2.48,-0.04,95.0,241.6,3.47,-0.06,98.0,248.5,3.75,-0.07,97.0,248.3,3.98,-0.08,97.0,259.4,4.35,-0.04,96.0,263.6,4.65,-0.05,70.0,271.3,4.81,-0.39,2.0,184.5,30.16,-2.69,0.0,192.2,14.91,-0.61,0.0,2.6,25.7,-7.2,0.0,167.5,36.83,-1.23,0.0,0.15,0.09,0.08,0.07,0.06,0.14,0.21,0.0,0.02,0.1,0.0
2/9/2020 1:00 AM,247.5,2.94,-0.02,97.0,250.5,3.84,-0.06,97.0,260.3,3.82,-0.03,96.0,259.4,4.26,-0.03,97.0,268.9,4.71,-0.04,96.0,268.7,4.97,0.02,43.0,269.9,4.94,-0.06,1.0,133.3,28.42,-4.59,0.0,256.6,22.8,0.8,0.0,240.1,28.33,2.67,0.0,224.7,37.88,-2.24,0.0,0.1,0.07,0.07,0.07,0.06,0.06,0.32,0.0,0.0,0.0,0.07
2/9/2020 1:10 AM,232.2,3.15,-0.08,98.0,248.9,3.37,-0.01,98.0,252.6,3.89,0.02,96.0,254.3,4.1,-0.02,96.0,262.5,4.65,-0.01,97.0,269.0,5.2,0.0,62.0,267.0,5.02,-0.06,18.0,307.6,30.71,-2.43,0.0,339.5,38.22,-3.32,0.0,67.3,12.71,2.52,0.0,299.2,20.27,-2.43,0.0,0.12,0.1,0.07,0.06,0.06,0.17,0.25,0.05,0.05,0.05,0.01
2/9/2020 1:20 AM,244.0,2.67,-0.07,96.0,246.3,3.44,-0.07,98.0,247.4,3.73,-0.08,97.0,251.1,3.87,-0.08,97.0,258.5,4.41,-0.08,97.0,267.0,4.64,-0.14,95.0,271.4,5.32,-0.16,85.0,269.2,5.42,0.03,7.0,220.4,25.32,-5.53,0.0,299.9,18.01,-2.2,0.0,206.4,24.3,-3.62,0.0,0.11,0.09,0.07,0.06,0.07,0.08,0.06,0.12,0.04,0.0,0.02
2/9/2020 1:30 AM,262.8,3.08,-0.01,97.0,261.3,3.97,-0.03,96.0,262.9,4.34,-0.02,95.0,267.1,4.46,-0.02,97.0,268.8,4.92,-0.05,96.0,271.7,5.61,-0.16,47.0,197.4,20.26,-1.94,1.0,18.1,16.02,2.06,0.0,274.4,9.75,2.0,0.0,161.4,14.46,-0.18,0.0,282.2,11.99,-1.97,0.0,0.11,0.09,0.08,0.07,0.08,0.19,0.21,0.03,0.0,0.52,0.4
2/9/2020 1:40 AM,244.1,2.84,-0.05,97.0,248.0,3.7,-0.06,97.0,252.5,3.95,-0.06,97.0,255.1,4.17,-0.09,97.0,259.9,4.66,-0.12,96.0,264.9,5.03,-0.26,57.0,332.7,17.9,2.43,0.0,119.7,20.47,1.83,0.0,112.0,11.92,0.97,0.0,44.4,45.45,-0.63,0.0,17.2,26.38,0.7,0.0,0.09,0.09,0.09,0.07,0.05,0.11,0.0,0.16,0.19,0.03,0.09
2/9/2020 1:50 AM,233.1,2.69,-0.1,96.0,247.0,3.7,-0.08,98.0,247.3,3.94,-0.08,96.0,250.1,3.89,-0.07,96.0,265.3,4.04,-0.14,78.0,179.5,7.78,-3.93,7.0,100.3,28.8,-2.82,3.0,106.3,13.62,-1.3,6.0,53.3,7.56,-6.36,6.0,15.4,18.72,-3.3,2.0,53.8,35.51,1.66,0.0,0.11,0.12,0.07,0.16,0.38,0.8,0.27,0.35,0.35,0.15,0.19
2/9/2020 2:00 AM,239.4,2.36,-0.05,97.0,245.8,3.36,-0.05,97.0,248.4,3.6,-0.08,96.0,247.9,3.9,-0.09,96.0,263.8,3.13,-0.06,59.0,269.1,4.14,-0.05,5.0,61.6,17.67,-1.73,0.0,325.1,8.68,-0.38,0.0,50.5,22.03,-2.77,0.0,134.0,25.68,-4.13,0.0,189.6,27.55,-0.91,0.0,0.12,0.08,0.07,0.07,0.1,0.21,0.02,0.01,0.01,0.0,0.21
2/9/2020 2:10 AM,233.9,2.3,-0.05,96.0,241.7,3.03,-0.06,96.0,244.9,3.12,-0.06,97.0,245.8,3.43,-0.06,97.0,253.4,3.32,-0.08,92.0,221.0,0.93,-0.06,1.0,199.8,45.33,0.3,0.0,62.3,26.97,-1.84,0.0,141.7,20.68,-3.15,0.0,102.0,8.36,1.37,0.0,179.9,9.92,-0.74,0.0,0.17,0.08,0.09,0.09,0.07,0.16,0.01,0.08,0.13,0.19,0.73
2/9/2020 2:20 AM,243.4,1.81,-0.06,95.0,247.4,2.31,-0.09,96.0,243.0,2.61,-0.04,96.0,240.3,2.95,-0.05,98.0,243.4,3.65,-0.04,97.0,265.6,3.54,-0.05,36.0,190.1,18.12,-2.12,5.0,239.9,16.43,-3.23,0.0,95.6,34.32,-2.99,0.0,18.6,15.61,-5.29,0.0,226.3,26.34,-5.28,0.0,0.21,0.18,0.09,0.08,0.13,0.33,0.26,0.03,0.0,0.19,0.02
2/9/2020 2:30 AM,244.9,1.21,-0.06,94.0,217.9,1.94,-0.02,96.0,225.1,2.28,0.02,96.0,231.8,2.57,-0.03,96.0,239.3,2.77,-0.02,98.0,244.4,2.96,-0.03,93.0,353.0,11.85,-3.99,4.0,270.3,11.24,-2.06,0.0,97.7,9.18,-1.47,0.0,229.7,31.03,-2.39,1.0,202.2,18.38,2.16,0.0,0.37,0.17,0.15,0.11,0.09,0.23,0.22,0.39,0.1,0.14,0.2
2/9/2020 2:40 AM,242.1,1.87,-0.14,96.0,237.4,2.5,-0.13,96.0,234.2,2.36,-0.08,98.0,237.4,2.46,-0.12,98.0,241.3,2.49,-0.16,99.0,263.3,2.0,-0.23,92.0,344.4,7.0,-5.5,3.0,48.2,42.23,-0.57,1.0,315.4,14.51,-3.59,2.0,57.0,3.76,-4.33,1.0,106.5,32.53,-0.93,3.0,0.2,0.12,0.14,0.08,0.18,0.84,1.85,0.06,1.61,1.45,0.35
2/9/2020 2:50 AM,232.2,1.95,-0.09,97.0,228.2,2.7,-0.11,98.0,241.7,2.7,-0.11,98.0,246.3,2.56,-0.08,97.0,244.8,2.62,-0.06,95.0,217.3,4.48,-0.25,2.0,359.9,7.78,0.58,0.0,149.0,20.13,-2.63,0.0,119.5,43.92,-1.58,1.0,126.1,25.23,2.63,0.0,180.0,0.0,0.0,0.0,0.2,0.13,0.11,0.11,0.14,0.13,1.26,0.09,0.04,0.07,0.0
2/9/2020 3:00 AM,210.4,1.63,-0.07,95.0,227.1,2.04,-0.08,97.0,233.3,2.21,-0.08,95.0,240.5,2.45,-0.09,97.0,244.7,2.58,-0.09,95.0,259.6,2.75,-0.08,29.0,270.9,3.39,-0.05,13.0,264.5,22.54,-5.48,0.0,299.9,23.48,-2.86,0.0,181.0,22.98,-1.65,0.0,202.9,27.6,-3.88,0.0,0.32,0.17,0.14,0.1,0.09,0.74,0.12,0.05,0.0,0.18,0.04
2/9/2020 3:10 AM,189.8,0.31,-0.11,95.0,241.4,2.17,-0.15,96.0,231.0,2.15,-0.06,96.0,240.1,2.03,-0.08,96.0,242.4,2.11,-0.11,97.0,256.4,2.44,-0.17,94.0,257.9,2.38,-0.21,7.0,108.9,40.83,1.73,0.0,358.3,29.88,-0.61,0.0,13.2,37.7,-4.66,0.0,257.5,26.54,0.0,0.0,1.32,0.14,0.12,0.14,0.21,0.12,0.77,0.02,0.17,0.07,0.08
2/9/2020 3:20 AM,207.1,0.83,-0.09,95.0,228.4,2.05,-0.05,96.0,237.4,2.09,-0.08,97.0,238.9,2.25,-0.07,96.0,251.6,2.31,-0.05,96.0,258.6,2.34,-0.06,93.0,268.0,2.63,-0.09,56.0,137.0,27.71,-4.37,0.0,299.9,24.83,-3.03,0.0,164.0,28.9,0.31,0.0,257.0,16.2,-3.42,1.0,0.51,0.15,0.15,0.11,0.1,0.1,0.19,0.02,0.32,0.08,0.32
2/9/2020 3:30 AM,184.6,0.64,-0.09,95.0,247.3,1.66,-0.17,95.0,254.6,2.26,-0.16,94.0,237.8,1.93,-0.09,95.0,240.5,2.46,-0.07,96.0,256.9,2.52,-0.09,93.0,262.4,2.65,-0.13,50.0,292.2,38.56,-2.37,1.0,31.1,37.3,-2.16,0.0,237.9,13.67,-2.68,0.0,55.9,15.11,-1.64,0.0,0.58,0.26,0.15,0.12,0.09,0.11,0.17,0.1,0.03,0.14,0.11
2/9/2020 3:40 AM,182.8,0.6,-0.11,96.0,248.4,1.6,-0.08,96.0,252.9,1.86,-0.11,97.0,253.8,1.93,-0.07,95.0,245.3,2.1,-0.12,86.0,228.6,3.03,-0.25,32.0,179.9,3.62,-0.27,0.0,185.7,21.97,-1.3,0.0,331.1,26.58,-0.62,0.0,44.3,33.35,-1.75,0.0,222.0,32.76,-1.65,0.0,0.51,0.23,0.17,0.13,0.32,0.38,0.13,0.12,0.04,0.01,0.08
2/9/2020 3:50 AM,294.9,1.45,-0.17,95.0,276.3,1.32,-0.14,94.0,251.5,1.76,-0.15,91.0,280.8,1.72,-0.07,96.0,301.8,0.94,-0.07,26.0,304.4,28.33,-2.24,0.0,4.5,10.34,-4.81,0.0,299.9,13.65,-1.67,0.0,155.8,27.77,-3.61,0.0,88.7,29.05,2.99,0.0,341.5,28.18,-0.42,0.0,0.34,0.28,0.24,0.18,0.77,0.03,0.19,0.09,0.0,0.07,0.04
2/9/2020 4:00 AM,295.7,1.43,-0.18,79.0,239.3,2.03,-0.3,90.0,275.9,1.48,-0.11,93.0,274.5,1.11,-0.12,93.0,189.1,1.14,-0.15,36.0,152.6,24.38,1.6,1.0,327.8,10.18,-0.86,0.0,276.7,43.2,-1.3,1.0,317.7,23.75,-4.47,4.0,358.7,14.45,-4.5,1.0,72.7,27.05,-3.31,0.0,0.31,0.24,0.29,0.44,1.22,0.38,0.2,0.08,0.2,0.23,0.04
2/9/2020 4:10 AM,256.9,1.25,-0.24,95.0,322.8,1.43,-0.13,87.0,251.8,0.48,-0.04,93.0,228.8,0.85,-0.06,72.0,162.9,1.0,0.01,14.0,74.6,21.48,-2.1,1.0,179.9,11.74,-0.88,0.0,92.2,20.88,-3.22,0.0,60.1,22.69,-2.14,0.0,227.1,34.28,2.06,0.0,141.6,20.77,-3.17,0.0,0.35,0.38,0.78,0.42,0.48,0.09,0.82,0.0,0.15,0.04,0.07
2/9/2020 4:20 AM,198.1,2.28,-0.03,94.0,210.5,1.74,-0.1,95.0,221.6,1.84,-0.06,95.0,211.4,1.82,0.04,94.0,209.4,2.29,0.0,90.0,202.9,3.33,-0.01,42.0,217.1,3.07,0.06,9.0,327.3,0.39,0.09,10.0,311.1,24.71,-2.84,1.0,262.1,34.74,-1.8,0.0,299.0,17.73,2.98,0.0,0.2,0.3,0.23,0.21,0.36,0.09,0.36,0.63,0.22,0.02,0.06
2/9/2020 4:30 AM,192.9,2.52,-0.09,96.0,189.6,1.03,-0.08,96.0,212.5,1.97,-0.02,95.0,213.3,2.96,-0.03,97.0,198.8,3.57,0.02,95.0,222.8,2.92,-0.07,91.0,250.1,2.81,-0.36,30.0,131.0,11.29,-2.73,1.0,138.6,2.86,-4.74,2.0,174.0,20.46,-1.4,4.0,135.5,46.4,-0.82,0.0,0.17,0.44,0.28,0.18,0.23,0.46,2.51,1.38,0.43,0.21,0.09
2/9/2020 4:40 AM,206.4,0.92,-0.16,93.0,199.2,0.86,-0.03,82.0,210.2,0.97,0.0,94.0,199.4,1.47,-0.01,93.0,209.0,2.82,-0.07,91.0,205.1,2.82,-0.1,91.0,229.8,3.06,-0.22,54.0,161.6,9.0,-1.51,16.0,17.4,24.59,-5.23,4.0,133.1,17.72,-2.78,2.0,208.8,12.15,-5.95,3.0,0.53,0.57,0.41,0.22,0.2,0.49,0.49,0.71,0.19,0.35,0.21
2/9/2020 4:50 AM,70.7,0.42,0.04,65.0,17.3,0.25,-0.08,91.0,242.3,0.85,-0.05,92.0,210.8,1.01,0.07,69.0,154.1,0.51,0.1,18.0,238.6,1.92,-0.06,0.0,58.3,28.82,0.01,0.0,326.1,24.12,-0.97,0.0,67.5,8.52,0.28,0.0,310.2,24.44,-2.25,0.0,37.6,15.36,2.64,0.0,1.47,1.72,0.34,0.32,0.65,0.16,0.08,0.44,0.13,0.08,0.0
2/9/2020 5:00 AM,202.5,1.57,-0.14,29.0,215.2,1.82,-0.24,77.0,264.5,0.82,-0.01,95.0,220.4,0.42,-0.05,75.0,99.7,0.54,-0.12,25.0,188.7,15.05,-2.67,3.0,66.7,15.38,-1.69,0.0,121.4,28.25,-0.04,0.0,85.9,1.44,-1.28,1.0,278.4,13.1,-2.24,0.0,175.4,25.93,-1.81,1.0,0.22,0.33,0.51,0.61,0.8,0.34,0.71,0.13,0.39,0.07,0.08
2/9/2020 5:10 AM,191.3,1.71,-0.14,29.0,189.3,1.8,-0.14,93.0,219.1,0.94,-0.08,96.0,187.4,1.01,0.02,81.0,196.5,2.36,0.12,32.0,176.8,3.61,0.15,21.0,222.7,5.66,-0.63,1.0,238.7,0.87,0.09,0.0,130.5,24.89,-4.07,0.0,179.9,27.88,-2.08,0.0,237.0,30.97,-6.04,0.0,0.23,0.28,0.41,0.57,0.89,0.1,0.28,0.15,0.0,0.0,0.0
2/9/2020 5:20 AM,199.3,1.96,-0.11,85.0,294.2,0.71,-0.27,83.0,293.1,0.53,-0.06,93.0,193.4,0.29,0.0,89.0,46.8,3.31,-0.69,17.0,114.8,17.4,-2.6,0.0,29.8,25.67,-4.03,3.0,101.3,29.79,-2.68,1.0,95.2,17.57,-0.44,0.0,80.9,18.08,-4.93,1.0,200.1,27.57,-0.49,0.0,0.24,0.84,0.59,1.4,1.34,0.14,0.64,0.08,0.74,0.08,0.17
2/9/2020 5:30 AM,65.5,1.78,-0.29,82.0,321.4,1.03,-0.28,48.0,61.4,0.39,-0.08,87.0,228.2,0.03,-0.01,80.0,250.7,0.4,-0.01,33.0,50.9,11.32,2.9,0.0,350.7,19.12,-1.49,0.0,204.1,23.16,-4.24,0.0,231.3,38.94,-3.88,0.0,181.2,18.87,4.28,0.0,200.9,32.69,2.45,0.0,0.3,0.6,0.98,1.25,1.56,0.25,0.17,0.25,0.26,0.12,0.14
2/9/2020 5:40 AM,198.0,1.28,-0.13,74.0,339.9,2.42,-0.1,41.0,248.8,0.5,-0.15,41.0,332.5,0.3,-0.09,90.0,75.5,0.94,0.06,7.0,327.6,2.77,-0.53,0.0,292.0,29.66,0.6,0.0,271.2,18.05,2.71,0.0,296.5,25.36,4.28,0.0,42.5,3.7,-0.18,0.0,180.0,0.0,0.0,0.0,0.38,0.28,0.85,1.88,0.53,0.01,0.07,0.9,0.02,0.61,0.0
2/9/2020 5:50 AM,221.2,1.13,-0.16,53.0,349.7,0.92,-0.09,50.0,232.8,0.71,-0.07,45.0,172.4,0.27,-0.03,89.0,36.0,3.4,-0.66,12.0,9.5,12.55,-1.49,1.0,115.8,24.16,-3.56,0.0,90.5,20.32,-0.4,8.0,295.2,17.64,-5.56,2.0,330.8,21.56,-2.6,0.0,11.5,28.42,-0.76,0.0,0.42,0.61,0.6,2.08,0.73,0.22,0.16,0.27,0.1,0.05,0.14
2/9/2020 6:00 AM,189.4,1.14,-0.12,94.0,151.4,0.27,-0.21,86.0,44.7,0.12,-0.09,93.0,195.9,0.65,0.01,72.0,290.1,2.63,-0.29,6.0,229.9,25.22,2.27,0.0,23.2,11.29,5.92,0.0,37.2,13.49,4.29,0.0,172.2,15.46,-0.76,0.0,152.7,26.27,-2.23,0.0,272.9,20.63,1.45,0.0,0.51,2.05,1.67,0.58,1.34,0.39,0.27,0.08,0.2,0.0,0.0
2/9/2020 6:10 AM,110.4,1.65,-0.2,84.0,51.7,0.74,-0.17,94.0,205.7,0.81,-0.03,91.0,167.5,0.55,0.04,92.0,172.0,0.83,0.15,22.0,107.6,1.82,-0.3,0.0,53.3,7.25,0.08,0.0,177.0,24.96,-2.95,0.0,311.1,31.33,-2.8,0.0,177.5,12.2,-1.24,0.0,44.6,26.54,1.15,0.0,0.3,0.7,0.53,0.78,1.02,0.13,0.42,0.08,0.05,0.22,0.09
2/9/2020 6:20 AM,174.6,1.54,-0.11,94.0,185.6,0.96,-0.12,95.0,165.1,0.9,-0.13,95.0,180.2,0.76,-0.06,92.0,129.4,1.7,0.0,37.0,129.3,6.11,-0.3,1.0,153.7,36.83,-1.46,0.0,154.5,4.68,-1.98,1.0,136.0,43.44,1.4,1.0,152.6,22.56,0.49,0.0,177.5,18.11,-2.92,0.0,0.33,0.5,0.52,0.46,0.41,0.2,0.09,0.96,0.01,0.11,0.04
2/9/2020 6:30 AM,202.3,0.88,-0.17,95.0,166.9,0.83,-0.13,96.0,156.9,1.02,-0.03,95.0,181.8,0.38,-0.03,91.0,146.2,3.53,-0.02,45.0,240.9,21.06,-2.32,6.0,272.5,4.58,-2.46,3.0,253.1,15.45,-5.71,3.0,305.1,20.99,-2.61,1.0,167.0,0.52,-3.74,5.0,218.0,15.12,-4.17,6.0,0.56,0.6,0.39,1.38,0.81,0.44,0.93,0.3,0.75,0.37,0.24
2/9/2020 6:40 AM,176.6,1.79,-0.03,95.0,171.0,2.39,-0.05,96.0,177.3,1.93,0.0,96.0,164.7,1.2,0.1,94.0,183.2,2.49,0.12,31.0,156.6,30.59,-0.93,0.0,252.7,22.49,-4.45,0.0,178.8,36.4,-1.61,0.0,68.5,35.75,1.49,0.0,84.0,37.86,-0.26,0.0,68.3,22.86,2.8,0.0,0.23,0.17,0.2,0.29,0.23,0.13,0.0,0.06,0.0,0.04,0.04
2/9/2020 6:50 AM,187.5,1.88,-0.14,94.0,172.3,1.57,-0.14,95.0,166.5,1.19,0.0,95.0,164.3,0.94,0.0,93.0,147.4,2.07,0.1,38.0,8.1,10.83,1.28,1.0,24.1,19.82,2.39,0.0,356.9,17.04,1.11,0.0,345.6,14.42,-3.09,0.0,317.3,30.53,-2.13,0.0,45.5,20.91,3.84,0.0,0.25,0.31,0.3,0.35,0.27,0.35,0.01,0.23,0.22,0.0,0.01
2/9/2020 7:00 AM,190.7,1.61,-0.07,96.0,168.6,1.87,-0.04,96.0,173.9,1.35,-0.04,95.0,160.2,1.43,0.0,94.0,170.0,2.12,0.09,29.0,4.7,11.37,1.33,1.0,295.4,5.72,-0.77,0.0,112.2,24.37,2.36,0.0,99.2,3.19,-0.52,0.0,173.4,30.28,-2.77,0.0,138.0,45.38,-1.71,0.0,0.29,0.24,0.31,0.26,0.53,0.26,0.09,0.0,0.66,0.0,0.01
2/9/2020 7:10 AM,165.7,1.72,-0.07,97.0,172.9,1.92,-0.01,96.0,155.6,1.63,0.03,93.0,173.7,1.71,0.04,95.0,172.0,2.72,0.11,74.0,212.2,3.13,-0.11,10.0,119.9,3.25,0.4,0.0,85.4,24.81,1.78,0.0,44.6,34.88,-1.86,0.0,6.9,18.17,1.76,0.0,289.4,22.57,1.32,0.0,0.27,0.24,0.25,0.2,0.47,0.87,0.03,0.03,0.02,0.0,0.04
2/9/2020 7:20 AM,172.8,2.81,-0.08,95.0,158.5,1.72,-0.09,95.0,163.1,2.33,-0.05,94.0,180.6,1.24,0.01,93.0,167.9,2.49,0.06,51.0,140.8,12.0,1.46,3.0,251.4,10.58,-4.36,0.0,184.9,22.36,-1.37,0.0,155.7,18.56,-2.07,0.0,79.4,29.96,1.32,0.0,299.9,9.37,-1.14,0.0,0.15,0.24,0.17,0.31,0.39,0.56,0.24,0.15,0.05,0.01,0.15
2/9/2020 7:30 AM,167.5,2.71,-0.04,95.0,159.8,1.56,-0.05,94.0,169.4,1.7,-0.01,94.0,164.9,1.72,0.03,93.0,136.6,2.0,-0.01,39.0,25.0,4.96,0.48,1.0,151.7,6.09,-1.33,1.0,19.7,3.89,1.05,0.0,69.8,6.51,-0.98,0.0,20.9,6.77,-0.88,0.0,165.2,22.47,-0.55,1.0,0.15,0.32,0.25,0.2,0.23,0.45,0.5,0.19,0.2,0.75,0.17
2/9/2020 7:40 AM,185.5,2.36,-0.11,96.0,159.3,2.1,-0.05,96.0,176.4,2.02,0.0,96.0,168.1,1.74,0.05,95.0,163.4,2.02,0.05,64.0,49.2,4.54,0.24,0.0,143.0,20.16,-1.77,1.0,195.3,19.97,-3.82,0.0,129.7,27.6,-1.88,0.0,139.9,35.24,-1.2,1.0,269.6,7.46,-4.39,0.0,0.2,0.23,0.2,0.23,0.45,0.45,0.31,0.2,0.03,0.04,2.67
2/9/2020 7:50 AM,182.2,1.84,-0.03,97.0,192.5,0.87,-0.09,96.0,206.5,1.22,-0.05,94.0,151.5,1.57,0.14,91.0,166.6,1.77,0.15,35.0,0.7,18.32,1.54,0.0,317.1,10.02,-1.7,0.0,187.7,13.48,-1.33,0.0,70.1,24.07,-1.42,0.0,329.8,24.58,-4.81,0.0,83.0,39.63,1.48,0.0,0.3,0.62,0.46,0.41,0.67,0.02,0.23,0.57,0.04,0.03,0.17
2/9/2020 8:00 AM,183.3,2.99,-0.1,96.0,173.9,2.4,-0.1,96.0,191.6,0.82,-0.01,94.0,172.0,0.99,0.03,91.0,185.6,1.91,0.1,42.0,173.4,1.47,0.1,0.0,327.5,24.27,-1.89,0.0,152.5,37.99,0.56,0.0,55.3,11.36,-1.26,0.0,175.4,31.66,-1.9,0.0,97.1,2.9,0.12,0.0,0.17,0.21,0.44,0.37,0.26,0.38,0.05,0.09,0.08,0.0,0.18
2/9/2020 8:10 AM,198.2,3.06,-0.06,98.0,192.9,1.56,-0.03,95.0,179.4,1.28,-0.03,95.0,200.5,1.69,0.06,93.0,180.7,2.52,0.12,88.0,181.0,4.02,0.12,14.0,172.5,21.91,-1.36,0.0,108.9,14.47,2.37,0.0,195.7,22.32,-2.4,0.0,178.2,30.54,-2.42,0.0,153.7,32.8,0.11,0.0,0.15,0.31,0.32,0.2,0.37,0.18,0.17,0.26,0.07,0.0,0.01
2/9/2020 8:20 AM,187.5,3.0,-0.02,95.0,191.2,3.26,-0.01,97.0,190.4,3.27,-0.01,96.0,191.0,2.0,0.08,95.0,185.5,2.7,0.12,88.0,178.9,4.09,0.07,34.0,266.0,3.38,-0.58,2.0,44.7,27.6,0.07,1.0,72.0,31.16,-0.91,1.0,108.3,24.85,4.04,0.0,139.2,14.93,0.16,1.0,0.13,0.12,0.11,0.25,0.2,0.17,0.92,0.11,0.34,0.09,0.15
2/9/2020 8:30 AM,200.4,2.92,-0.01,96.0,193.6,3.44,-0.07,97.0,191.9,3.77,-0.1,98.0,184.7,3.52,-0.03,97.0,174.5,3.23,0.08,87.0,182.2,6.34,0.47,16.0,15.4,13.08,1.01,2.0,99.4,12.17,2.06,0.0,156.4,41.39,-0.64,0.0,69.5,21.76,2.37,0.0,226.4,13.41,6.39,0.0,0.11,0.1,0.13,0.13,0.28,0.41,0.55,0.2,0.02,0.03,0.1
2/9/2020 8:40 AM,194.9,2.88,-0.01,96.0,184.9,3.56,-0.01,97.0,183.0,4.17,0.02,98.0,185.4,2.77,-0.03,97.0,174.5,2.92,0.13,74.0,118.1,5.59,0.48,22.0,99.3,5.52,1.67,1.0,62.4,31.55,-0.5,1.0,346.5,14.79,4.33,1.0,57.8,45.9,-0.11,1.0,25.4,12.09,1.77,0.0,0.11,0.09,0.1,0.2,0.43,0.38,0.32,0.07,0.23,0.05,0.11
2/9/2020 8:50 AM,212.4,2.21,-0.04,95.0,216.3,2.97,-0.07,96.0,208.2,3.25,-0.05,97.0,213.5,3.17,-0.05,97.0,213.2,3.07,0.01,93.0,213.0,3.22,-0.01,59.0,202.8,2.64,0.07,19.0,6.7,11.5,1.33,1.0,29.1,5.84,0.91,0.0,238.3,19.53,2.62,1.0,347.8,5.52,3.32,1.0,0.16,0.1,0.1,0.11,0.17,0.68,1.0,0.2,0.47,0.44,0.27
2/9/2020 9:00 AM,234.3,2.54,-0.15,96.0,223.6,2.18,-0.05,96.0,228.7,2.23,-0.08,96.0,235.0,2.1,-0.06,96.0,228.5,2.66,-0.09,92.0,209.4,3.19,-0.06,65.0,161.1,2.78,0.1,10.0,72.9,20.94,-1.02,0.0,124.7,26.98,-1.24,0.0,43.2,35.12,0.27,0.0,158.4,13.35,-3.27,1.0,0.15,0.14,0.18,0.21,0.16,0.24,0.4,0.03,0.14,0.02,0.14
2/9/2020 9:10 AM,227.4,1.26,-0.14,95.0,227.1,1.9,-0.13,97.0,147.2,0.51,-0.03,62.0,201.7,1.69,-0.05,69.0,217.5,2.5,-0.02,92.0,196.3,2.89,0.04,29.0,157.7,12.44,-1.71,2.0,106.0,21.85,-3.63,0.0,208.6,27.03,-2.28,0.0,160.1,30.69,-1.67,1.0,250.0,16.78,-5.49,1.0,0.25,0.23,0.79,0.2,0.11,0.42,0.41,0.09,0.2,0.04,0.16
2/9/2020 9:20 AM,302.6,1.26,-0.2,94.0,270.5,1.35,-0.23,95.0,185.0,0.83,0.01,95.0,145.0,0.74,-0.07,64.0,239.7,2.2,-0.1,51.0,331.9,1.21,-0.02,0.0,357.3,22.6,-3.87,1.0,66.2,6.19,-0.45,0.0,42.8,18.71,-2.78,0.0,158.6,17.54,-2.19,0.0,311.7,15.16,-6.23,0.0,0.36,0.4,0.42,0.37,0.27,0.55,0.43,0.19,0.08,0.18,0.07
2/9/2020 9:30 AM,216.7,0.55,-0.11,95.0,210.5,0.46,-0.12,96.0,242.1,0.95,-0.03,84.0,82.3,0.08,0.03,70.0,111.9,2.67,0.32,14.0,206.7,5.11,1.05,0.0,182.6,43.93,3.04,1.0,161.3,21.42,-1.21,0.0,125.9,22.95,0.8,0.0,337.3,13.03,1.65,0.0,177.3,16.37,-0.67,0.0,0.95,1.15,0.54,3.76,0.43,0.24,0.1,0.04,0.1,0.11,0.02
2/9/2020 9:40 AM,165.9,0.5,-0.06,95.0,200.2,1.51,0.0,96.0,210.7,1.23,-0.14,97.0,123.8,0.36,-0.01,93.0,136.0,4.19,0.37,28.0,53.2,7.36,0.21,6.0,32.5,5.73,1.14,0.0,13.8,16.94,1.98,0.0,200.4,16.84,-2.27,0.0,168.9,25.56,-1.24,0.0,163.2,29.04,-2.58,0.0,1.04,0.29,0.41,1.23,0.25,0.45,0.9,0.05,0.1,0.1,0.12
2/9/2020 9:50 AM,210.4,0.53,-0.14,94.0,201.1,1.38,-0.05,95.0,198.4,1.6,-0.07,96.0,206.0,1.0,-0.01,94.0,126.8,1.48,0.0,40.0,214.2,2.8,0.19,1.0,258.0,16.18,-0.04,0.0,53.5,25.49,0.24,0.0,166.3,30.01,0.79,0.0,119.9,16.83,2.05,0.0,230.3,19.54,2.47,0.0,1.02,0.33,0.3,0.45,0.56,0.29,0.31,0.08,0.16,0.8,0.07
2/9/2020 10:00 AM,161.8,0.76,-0.11,95.0,197.3,1.47,-0.14,95.0,188.2,0.9,-0.08,93.0,356.0,0.25,-0.06,93.0,93.3,0.43,0.05,53.0,147.2,9.41,0.23,2.0,82.3,1.95,0.65,0.0,266.1,23.06,-3.86,1.0,179.9,23.01,-1.72,0.0,52.7,16.98,-2.02,0.0,117.4,16.36,-1.72,0.0,0.72,0.37,0.58,1.52,0.44,0.42,0.09,0.15,0.04,0.0,0.07
2/9/2020 10:10 AM,129.7,0.91,-0.14,95.0,201.1,0.87,-0.11,96.0,172.1,1.39,-0.06,96.0,171.5,0.78,-0.11,91.0,66.9,1.56,0.19,24.0,122.9,5.86,-0.68,5.0,140.5,9.31,-0.2,3.0,334.8,9.32,3.15,0.0,204.6,24.76,5.07,0.0,37.0,18.05,1.13,1.0,41.5,16.44,2.14,0.0,0.49,0.54,0.33,0.56,1.06,0.92,0.29,0.19,0.12,0.08,0.1
2/9/2020 10:20 AM,137.9,1.1,-0.22,96.0,189.8,0.83,-0.01,94.0,220.0,1.01,-0.12,92.0,222.8,0.23,-0.05,92.0,104.8,1.01,-0.06,41.0,151.0,12.05,-0.78,13.0,182.3,14.13,-2.54,4.0,148.8,16.9,0.18,3.0,147.0,7.11,0.48,1.0,112.2,5.03,-0.37,1.0,356.0,20.23,1.84,1.0,0.49,0.62,0.49,1.15,1.09,0.53,0.55,0.29,0.47,0.13,0.19
2/9/2020 10:30 AM,88.3,0.83,-0.06,95.0,316.4,1.2,-0.21,96.0,127.6,0.46,0.01,93.0,244.6,0.23,-0.01,92.0,107.4,0.69,-0.11,39.0,160.4,11.53,-0.15,10.0,104.2,14.79,0.18,1.0,56.2,12.32,1.86,1.0,142.8,16.86,-0.3,0.0,152.9,21.66,-1.1,7.0,164.1,20.64,-1.29,1.0,0.65,0.41,0.96,1.43,3.01,0.23,0.21,0.17,0.21,0.21,0.28
2/9/2020 10:40 AM,94.8,0.74,-0.06,95.0,247.7,0.46,-0.17,96.0,28.7,0.34,-0.06,92.0,50.6,0.07,-0.04,91.0,99.2,2.17,0.24,50.0,149.0,3.76,-0.71,26.0,90.1,4.5,-0.33,5.0,162.1,20.81,-2.18,8.0,24.5,16.46,0.11,0.0,15.1,9.75,1.09,1.0,21.5,20.34,1.24,0.0,0.59,1.06,0.98,2.35,0.34,0.6,0.75,0.38,0.17,0.26,0.07
2/9/2020 10:50 AM,64.1,0.94,-0.09,96.0,114.9,1.35,-0.08,98.0,128.6,1.77,-0.1,96.0,111.6,1.31,-0.03,95.0,109.4,1.85,0.01,89.0,140.2,3.46,0.02,23.0,39.8,7.8,0.17,3.0,92.8,13.69,0.05,5.0,82.2,7.43,0.75,4.0,70.6,19.67,2.85,0.0,148.0,23.98,-2.29,2.0,0.53,0.32,0.23,0.3,0.34,0.42,0.35,0.32,0.21,0.19,0.85
2/9/2020 11:00 AM,105.1,0.98,-0.11,95.0,123.6,1.69,-0.08,97.0,121.6,1.86,-0.09,97.0,135.3,2.06,-0.07,96.0,138.3,1.86,-0.05,91.0,166.2,14.86,-0.9,6.0,162.4,22.16,-1.24,3.0,96.5,8.76,-1.05,1.0,52.2,28.06,-1.84,1.0,147.2,16.36,-1.16,1.0,155.8,29.52,-2.98,1.0,0.44,0.17,0.18,0.17,0.33,0.25,0.25,0.73,0.53,0.69,0.12
2/9/2020 11:10 AM,109.5,1.86,-0.08,97.0,121.9,1.78,-0.12,97.0,118.8,2.19,-0.05,97.0,126.9,2.43,-0.09,96.0,138.2,1.43,-0.05,78.0,145.4,16.35,-0.93,4.0,250.3,2.58,-1.66,1.0,172.8,18.17,-2.68,2.0,142.8,18.49,-1.53,2.0,125.1,37.38,-1.78,1.0,282.8,19.17,-3.35,0.0,0.17,0.23,0.14,0.13,0.44,0.24,0.41,0.61,0.29,0.12,0.28
2/9/2020 11:20 AM,110.2,1.79,-0.06,97.0,125.5,2.36,-0.07,98.0,128.8,2.15,-0.07,98.0,136.9,2.51,-0.06,97.0,128.9,1.59,0.14,71.0,101.9,9.45,-0.98,14.0,107.9,5.85,-0.28,29.0,126.6,8.76,-0.36,8.0,164.7,20.0,-0.76,3.0,158.4,11.93,-0.17,5.0,154.9,24.45,-0.76,3.0,0.2,0.13,0.12,0.09,0.34,0.68,0.26,0.26,0.3,0.27,0.22
2/9/2020 11:30 AM,131.5,1.28,-0.04,96.0,119.2,1.89,-0.08,97.0,130.3,2.31,-0.07,97.0,131.9,2.57,-0.12,97.0,152.8,1.81,-0.01,91.0,185.7,1.77,-0.22,67.0,205.8,2.45,-0.13,65.0,131.3,2.72,-1.33,47.0,345.6,5.65,-3.01,27.0,256.9,21.35,-2.91,15.0,357.9,22.58,-2.49,6.0,0.24,0.18,0.12,0.2,0.98,0.73,1.19,1.23,0.82,0.54,0.28
2/9/2020 11:40 AM,127.7,2.32,-0.02,95.0,139.3,2.69,-0.1,96.0,139.0,2.54,-0.18,97.0,142.0,3.08,-0.06,95.0,193.9,1.88,-0.08,90.0,140.1,4.41,-0.28,67.0,30.9,3.0,-0.2,66.0,158.8,3.05,-0.02,39.0,111.5,15.55,0.48,33.0,106.2,7.76,0.61,34.0,92.0,7.83,-1.39,45.0,0.13,0.28,0.33,0.23,0.99,0.55,1.19,2.09,0.42,1.32,1.29
2/9/2020 11:50 AM,155.4,2.63,-0.04,96.0,169.6,2.61,-0.03,97.0,165.7,2.16,0.04,97.0,166.9,2.17,0.0,96.0,164.4,3.0,0.05,90.0,212.7,2.1,-0.51,38.0,156.1,5.21,-0.07,11.0,144.9,12.93,-3.35,4.0,178.6,19.57,-2.73,5.0,14.4,11.66,-0.35,16.0,116.5,11.32,-0.71,3.0,0.16,0.16,0.21,0.22,0.19,1.88,0.45,0.19,0.43,0.57,0.32
2/9/2020 12:00 PM,169.8,3.08,-0.09,97.0,128.8,2.26,-0.03,95.0,215.1,1.67,-0.05,94.0,163.2,3.15,0.29,94.0,194.0,5.69,0.18,69.0,181.0,11.65,-0.52,39.0,213.5,8.91,-0.09,41.0,236.9,7.43,0.68,44.0,123.3,8.74,1.44,31.0,187.0,7.5,0.26,31.0,171.0,13.44,2.31,36.0,0.18,0.48,0.62,0.53,0.69,0.51,0.75,0.83,0.47,0.62,0.45
2/9/2020 12:10 PM,165.7,2.48,-0.02,97.0,165.1,1.76,-0.05,95.0,172.8,1.43,-0.1,94.0,166.6,1.34,-0.15,93.0,61.2,5.2,0.05,86.0,187.6,10.44,-0.81,31.0,117.5,8.62,-2.46,32.0,173.1,22.33,1.7,33.0,232.1,9.36,-1.98,30.0,209.5,24.61,-0.79,24.0,117.4,24.53,-1.07,30.0,0.21,0.36,0.89,0.83,0.98,4.38,0.76,0.46,0.7,0.39,0.41
2/9/2020 12:20 PM,167.4,1.98,-0.04,98.0,152.9,0.51,-0.24,94.0,175.6,2.43,-0.01,93.0,166.8,1.69,0.07,94.0,169.1,4.64,0.28,75.0,77.1,16.43,-0.68,41.0,120.4,5.39,-0.59,24.0,63.9,6.55,-1.12,27.0,157.1,14.14,1.5,25.0,137.3,9.74,0.56,20.0,126.6,6.87,-2.8,21.0,0.41,2.45,0.4,0.95,0.44,0.5,1.01,0.99,0.61,2.57,0.47